When you browse on this site, cookies collect data to enhance your experience and personalize the content and advertising you see.
Visit our Privacy Policy to learn more. By continuing to use the site, you agree to this use of cookies and data.
  • In Portugal
  • List of Countries
  • For 7 days
  • Water Temperature
  • Weather Map
  • Weather Widgets
  • user-avatar
    Login

    Hourly Weather Canillo

    Today, 15 October, Tuesday

    Time Temperature Precipitation Wind Pressure Humidity
    00:00 +6°C° 0.3 mm 2 mps 614 mmHg 96%
    01:00 +6°C° 0.2 mm 1 mps 614 mmHg 96%
    02:00 +5°C° 0.2 mm 1 mps 614 mmHg 95%
    03:00 +5°C° 0.2 mm 1 mps 613 mmHg 95%
    04:00 +4°C° 0.3 mm 1 mps 613 mmHg 95%
    05:00 +2°C° 0.3 mm 2 mps 614 mmHg 96%
    06:00 +2°C° 0.3 mm 2 mps 614 mmHg 96%
    07:00 +3°C° 0.2 mm 2 mps 615 mmHg 91%
    08:00 +3°C° 0.2 mm 2 mps 615 mmHg 87%
    09:00 +4°C° 0.2 mm 2 mps 616 mmHg 82%
    10:00 +6°C° 0 mm 2 mps 617 mmHg 72%
    11:00 +8°C° 0 mm 1 mps 618 mmHg 62%
    12:00 +10°C° 0 mm 1 mps 619 mmHg 52%
    13:00 +10°C° 0 mm 1 mps 619 mmHg 51%
    14:00 +10°C° 0 mm 1 mps 619 mmHg 51%
    15:00 +9°C° 0 mm 2 mps 618 mmHg 51%
    16:00 +8°C° 0 mm 1 mps 618 mmHg 62%
    17:00 +6°C° 0 mm 1 mps 617 mmHg 73%
    18:00 +4°C° 0 mm 1 mps 617 mmHg 84%
    19:00 +4°C° 0 mm 1 mps 617 mmHg 85%
    20:00 +4°C° 0 mm 1 mps 617 mmHg 86%
    21:00 +4°C° 0 mm 1 mps 618 mmHg 87%
    22:00 +4°C° 0 mm 1 mps 617 mmHg 87%
    23:00 +3°C° 0 mm 1 mps 617 mmHg 86%

    Tomorrow, 16 October, Wednesday

    Time Temperature Precipitation Wind Pressure Humidity
    00:00 +3°C° 0 mm 1 mps 617 mmHg 86%
    01:00 +3°C° 0 mm 1 mps 617 mmHg 85%
    02:00 +3°C° 0 mm 1 mps 617 mmHg 84%
    03:00 +3°C° 0 mm 1 mps 616 mmHg 84%
    04:00 +2°C° 0 mm 2 mps 616 mmHg 82%
    05:00 +2°C° 0 mm 2 mps 616 mmHg 80%
    06:00 +1°C° 0 mm 2 mps 616 mmHg 78%
    07:00 +4°C° 0 mm 2 mps 617 mmHg 67%
    08:00 +6°C° 0 mm 2 mps 617 mmHg 57%
    09:00 +8°C° 0 mm 2 mps 618 mmHg 47%
    10:00 +10°C° 0 mm 2 mps 619 mmHg 45%
    11:00 +12°C° 0 mm 2 mps 619 mmHg 42%
    12:00 +13°C° 0 mm 2 mps 619 mmHg 39%
    13:00 +13°C° 0 mm 2 mps 619 mmHg 42%
    14:00 +13°C° 0 mm 2 mps 618 mmHg 44%
    15:00 +12°C° 0 mm 1 mps 618 mmHg 46%
    16:00 +10°C° 0 mm 1 mps 617 mmHg 52%
    17:00 +8°C° 0 mm 1 mps 617 mmHg 58%
    18:00 +6°C° 0 mm 1 mps 616 mmHg 65%
    19:00 +6°C° 0 mm 1 mps 616 mmHg 65%
    20:00 +6°C° 0 mm 1 mps 617 mmHg 66%
    21:00 +6°C° 0 mm 1 mps 617 mmHg 66%
    22:00 +6°C° 0 mm 1 mps 617 mmHg 67%
    23:00 +6°C° 0 mm 1 mps 617 mmHg 67%

    Day after tomorrow, 17 October, Thursday

    Time Temperature Precipitation Wind Pressure Humidity
    00:00 +6°C° 0 mm 1 mps 617 mmHg 68%
    01:00 +6°C° 0 mm 1 mps 617 mmHg 68%
    02:00 +6°C° 0 mm 1 mps 617 mmHg 69%
    03:00 +6°C° 0 mm 1 mps 616 mmHg 69%
    04:00 +6°C° 0 mm 1 mps 616 mmHg 71%
    05:00 +6°C° 0 mm 1 mps 616 mmHg 72%
    06:00 +6°C° 0 mm 1 mps 616 mmHg 73%
    07:00 +8°C° 0 mm 1 mps 618 mmHg 68%
    08:00 +10°C° 0 mm 1 mps 619 mmHg 63%
    09:00 +13°C° 0 mm 2 mps 620 mmHg 57%
    10:00 +13°C° 0 mm 2 mps 620 mmHg 56%
    11:00 +14°C° 0 mm 2 mps 620 mmHg 55%
    12:00 +14°C° 0 mm 2 mps 621 mmHg 54%
    13:00 +14°C° 0 mm 2 mps 620 mmHg 56%
    14:00 +13°C° 0 mm 2 mps 620 mmHg 58%
    15:00 +12°C° 0 mm 2 mps 619 mmHg 60%
    16:00 +11°C° 0 mm 1 mps 619 mmHg 64%
    17:00 +9°C° 0 mm 1 mps 618 mmHg 69%
    18:00 +8°C° 0 mm 1 mps 617 mmHg 73%
    19:00 +8°C° 0 mm 1 mps 618 mmHg 73%
    20:00 +7°C° 0 mm 1 mps 618 mmHg 72%
    21:00 +7°C° 0 mm 1 mps 618 mmHg 72%
    22:00 +6°C° 0 mm 1 mps 618 mmHg 72%
    23:00 +6°C° 0 mm 1 mps 617 mmHg 72%

    18 October, Friday

    Time Temperature Precipitation Wind Pressure Humidity
    00:00 +6°C° 0 mm 1 mps 617 mmHg 72%
    01:00 +5°C° 0 mm 1 mps 617 mmHg 72%
    02:00 +5°C° 0 mm 1 mps 616 mmHg 73%
    03:00 +5°C° 0 mm 1 mps 616 mmHg 74%
    04:00 +5°C° 0 mm 1 mps 616 mmHg 74%
    05:00 +5°C° 0 mm 1 mps 616 mmHg 74%
    06:00 +5°C° 0 mm 1 mps 616 mmHg 74%
    07:00 +7°C° 0 mm 1 mps 618 mmHg 68%
    08:00 +8°C° 0 mm 0 mps 619 mmHg 63%
    09:00 +10°C° 0 mm 0 mps 620 mmHg 57%
    10:00 +12°C° 0 mm 1 mps 620 mmHg 55%
    11:00 +13°C° 0 mm 1 mps 620 mmHg 53%
    12:00 +13°C° 0 mm 2 mps 620 mmHg 51%
    13:00 +13°C° 0 mm 1 mps 620 mmHg 55%
    14:00 +12°C° 0 mm 1 mps 619 mmHg 59%
    15:00 +12°C° 0 mm 1 mps 619 mmHg 63%
    16:00 +10°C° 0 mm 1 mps 618 mmHg 72%
    17:00 +7°C° 0 mm 0 mps 618 mmHg 81%
    18:00 +6°C° 0 mm 0 mps 617 mmHg 90%
    19:00 +5°C° 0 mm 0 mps 617 mmHg 90%
    20:00 +5°C° 0 mm 0 mps 617 mmHg 90%
    21:00 +5°C° 0 mm 0 mps 617 mmHg 91%
    22:00 +6°C° 0 mm 1 mps 617 mmHg 90%
    23:00 +6°C° 0 mm 1 mps 617 mmHg 90%

    19 October, Saturday

    Time Temperature Precipitation Wind Pressure Humidity
    00:00 +5°C° 0 mm 1 mps 616 mmHg 90%
    01:00 +5°C° 0 mm 1 mps 616 mmHg 91%
    02:00 +5°C° 0 mm 1 mps 616 mmHg 91%
    03:00 +5°C° 0 mm 1 mps 616 mmHg 91%
    04:00 +6°C° 0 mm 1 mps 615 mmHg 91%
    05:00 +6°C° 0 mm 1 mps 615 mmHg 91%
    06:00 +5°C° 0 mm 2 mps 615 mmHg 91%
    07:00 +6°C° 0.1 mm 2 mps 615 mmHg 86%
    08:00 +7°C° 0.1 mm 3 mps 616 mmHg 82%
    09:00 +8°C° 0.1 mm 3 mps 616 mmHg 78%
    10:00 +8°C° 0.5 mm 3 mps 616 mmHg 80%
    11:00 +8°C° 0.5 mm 3 mps 615 mmHg 82%
    12:00 +7°C° 0.5 mm 3 mps 615 mmHg 84%
    13:00 +8°C° 0.1 mm 2 mps 615 mmHg 81%
    14:00 +8°C° 0.1 mm 2 mps 615 mmHg 78%
    15:00 +8°C° 0.1 mm 2 mps 615 mmHg 75%
    16:00 +8°C° 0.2 mm 1 mps 615 mmHg 81%
    17:00 +7°C° 0.2 mm 1 mps 614 mmHg 88%
    18:00 +6°C° 0.2 mm 1 mps 614 mmHg 94%
    19:00 +6°C° 0.3 mm 1 mps 614 mmHg 95%
    20:00 +6°C° 0.3 mm 1 mps 615 mmHg 95%
    21:00 +7°C° 0.3 mm 1 mps 615 mmHg 95%
    22:00 +6°C° 0.2 mm 1 mps 615 mmHg 95%
    23:00 +6°C° 0.2 mm 1 mps 615 mmHg 94%

    20 October, Sunday

    Time Temperature Precipitation Wind Pressure Humidity
    00:00 +5°C° 0.2 mm 1 mps 614 mmHg 94%
    01:00 +5°C° 0.2 mm 1 mps 614 mmHg 93%
    02:00 +5°C° 0.2 mm 1 mps 614 mmHg 93%
    03:00 +5°C° 0.2 mm 1 mps 614 mmHg 93%
    04:00 +4°C° 0.3 mm 1 mps 614 mmHg 94%
    05:00 +4°C° 0.3 mm 1 mps 614 mmHg 94%
    06:00 +3°C° 0.3 mm 1 mps 614 mmHg 95%
    07:00 +4°C° 0.2 mm 1 mps 615 mmHg 93%
    08:00 +4°C° 0.2 mm 1 mps 615 mmHg 90%
    09:00 +5°C° 0.2 mm 1 mps 616 mmHg 88%
    10:00 +6°C° 0.2 mm 1 mps 616 mmHg 84%
    11:00 +6°C° 0.2 mm 1 mps 616 mmHg 79%
    12:00 +7°C° 0.2 mm 1 mps 616 mmHg 75%
    13:00 +7°C° 0.4 mm 1 mps 616 mmHg 77%
    14:00 +6°C° 0.4 mm 1 mps 616 mmHg 80%
    15:00 +6°C° 0.4 mm 1 mps 616 mmHg 82%
    16:00 +5°C° 0.4 mm 1 mps 616 mmHg 86%
    17:00 +4°C° 0.4 mm 1 mps 616 mmHg 90%
    18:00 +3°C° 0.4 mm 1 mps 615 mmHg 93%
    19:00 +1°C° 0.6 mm 2 mps 616 mmHg 94%
    20:00 +1°C° 0.6 mm 2 mps 616 mmHg 95%
    21:00 +1°C° 0.6 mm 2 mps 616 mmHg 95%
    22:00 -1°C° 0.2 mm 2 mps 616 mmHg 95%
    23:00 -1°C° 0.2 mm 2 mps 616 mmHg 94%
    Show more